Overview Statistics Trail Chart Weather Telemetry Raw packets
 

This is the latest recevied weather packets stored in our database for station/object KG5VSR. If no packets are shown the sender has not sent any weather packets the latest 10 day(s).

<< 1 2 3 4 5 6 7 >>
Time Temp. Humidity Pressure Rain* Wind** Luminosity Snow
1788545700 36.11° C 50% 1014.5 hPa 0 mm - 705 W/m² -
1788543896 35° C 54% 1014.7 hPa 0 mm - 696 W/m² -
1788542096 33.89° C 61% 1015.2 hPa 0 mm - 783 W/m² -
1788540294 33.89° C 63% 1015.3 hPa 0 mm - 771 W/m² -
1788538493 32.22° C 69% 1015.4 hPa 0 mm - 739 W/m² -
1788536689 30.56° C 74% 1015.5 hPa 0 mm - 618 W/m² -
1788534884 30° C 79% 1015.3 hPa 0 mm - 499 W/m² -
1788533082 28.33° C 85% 1015.2 hPa 0 mm - 111 W/m² -
1788531279 27.78° C 88% 1015.2 hPa 0 mm - 146 W/m² -
1788529476 27.22° C 90% 1015 hPa 0 mm - 214 W/m² -
1788527675 26.11° C 93% 1014.7 hPa 0 mm - 74 W/m² -
1788525874 25° C 95% 1014.6 hPa 0 mm - 31 W/m² -
1788524074 24.44° C 95% 1014.4 hPa 0 mm - 4 W/m² -
1788522273 24.44° C 95% 1014.4 hPa 0 mm - 0 W/m² -
1788520472 25° C 94% 1014.2 hPa 0 mm - 0 W/m² -
1788518670 25° C 92% 1014.1 hPa 0 mm - 0 W/m² -
1788516869 25° C 91% 1013.8 hPa 0 mm - 0 W/m² -
1788515068 25.56° C 90% 1013.6 hPa 0 mm - 0 W/m² -
1788513266 25.56° C 89% 1013.8 hPa 0 mm - 0 W/m² -
1788511461 25.56° C 88% 1013.6 hPa 0 mm - 0 W/m² -
1788509661 26.11° C 87% 1013.8 hPa 0 mm - 0 W/m² -
1788507861 26.11° C 86% 1013.5 hPa 0 mm - 0 W/m² -
1788506057 26.11° C 85% 1013.6 hPa 0 mm - 0 W/m² -
1788504254 26.67° C 84% 1013.9 hPa 0 mm - 0 W/m² -
1788502452 26.67° C 82% 1013.7 hPa 0 mm - 0 W/m² -

* Rain latest hour (hover to see other rain measurements)
** Current wind speed in m/s (hover to see current wind gust speed)